Terug naar catalogus

STARLINK-11611

ActiefCommunicatieVLEO
NORAD 63138·PAYLOAD·🇺🇸 United States

Gelanceerd Mar 3, 2025 vanaf Cape Canaveral Space Force Station

Loading…

Volgende Passages (komende 24 uur)

TLE

VersSource: CelesTrak SupGP

Epoch: Sep 15, 2026, 03:29 UTC

1 63138C 25043G   26258.14562500 -.00029959  00000+0 -23266-3 0  2586
2 63138  43.0004 188.6200 0001494 271.8698 315.9896 15.70856611    10

Volg STARLINK-11611 in realtime met AllMySat

Download on the App Store